Flag for U.S.A. Weather past 2 weeks in Sterling Heights, Michigan, U.S.A.

Now
52 °F

Overcast.


Feels Like: 52 °F
Forecast: 53 / 81 °F
Wind: No wind

Location: Selfridge Air National Guard Base

Current Time: May 24, 2015 at 7:57:24 AM

Latest Report: May 24, 2015 at 6:58 AM


Visibility: 8 mi

Pressure: 30.26 "Hg

Humidity: 86%

Dew point: 48 °F

Location of Sterling HeightsLocation

Historic Weather in Sterling Heights — Graph

°F

Sterling Heights temperature yesterday

Maximum temperature yesterday: 71 °F (at 4:55 PM)
Minimum temperature yesterday: 35 °F (at 4:58 AM)
Average temperature yesterday: 55 °F

Past Weeks' High & Low Weather Summary

 TemperatureHumidityPressure
High83 °F (May 18, 3:55 PM)100% (May 9, 6:58 AM)30.51 "Hg (May 9, 6:58 AM)
Low34 °F (May 14, 4:58 AM)28% (May 22, 4:55 PM)29.77 "Hg (May 11, 6:55 PM)
Average58 °F72%30.11 "Hg
* Reported May 9 6:58 AM — May 24 6:58 AM, Sterling Heights, Weather by CustomWeather, © 2015

Note: Actual official high and low records may vary slightly from our data, if they occured in-between our weather recording intervals... More about our weather records

Advertising

Sterling Heights weather history for previous 24 hours

 ConditionsComfort  
Time TempWeatherWind HumidityBarometerVisibility
6:58 AM
Sun, May 24
52 °FOvercast.No wind86%30.26 "Hg8 mi
5:58 AM50 °FPassing clouds.No wind83%30.25 "Hg9 mi
4:58 AM49 °FPassing clouds.No wind84%30.24 "Hg9 mi
3:58 AM49 °FPassing clouds.No wind79%30.24 "Hg10 mi
3:03 AM50 °FCool.N/A76%30.24 "HgN/A
2:58 AM50 °FClear.2 mph76%30.25 "Hg10 mi
1:58 AM49 °FClear.No wind78%30.25 "Hg10 mi
12:58 AM50 °FClear.No wind79%30.26 "Hg10 mi
11:58 PM
Sat, May 23
56 °FClear.3 mph66%30.27 "Hg9 mi
10:58 PM53 °FClear.6 mph76%30.27 "Hg10 mi
9:58 PM56 °FClear.7 mph71%30.26 "Hg10 mi
8:58 PM58 °FSunny.6 mph59%30.25 "Hg10 mi
7:55 PM65 °FScattered clouds.7 mph47%30.27 "Hg12 mi
6:55 PM69 °FScattered clouds.9 mph41%30.29 "Hg12 mi
5:55 PM70 °FScattered clouds.12 mph31%30.30 "Hg12 mi
4:55 PM71 °FScattered clouds.13 mph29%30.32 "Hg12 mi
3:55 PM71 °FScattered clouds.15 mph32%30.34 "Hg12 mi
2:55 PM70 °FPassing clouds.16 mph34%30.36 "Hg12 mi
1:55 PM69 °FScattered clouds.13 mph35%30.37 "Hg12 mi
12:55 PM68 °FScattered clouds.10 mph44%30.38 "Hg10 mi
11:55 AM64 °FScattered clouds.7 mph53%30.40 "Hg10 mi
10:55 AM60 °FPassing clouds.5 mph63%30.41 "Hg10 mi
9:55 AM57 °FPassing clouds.5 mph62%30.42 "Hg10 mi
8:55 AM55 °FPassing clouds.9 mph59%30.42 "Hg10 mi
7:55 AM45 °FPassing clouds.No wind77%30.41 "Hg10 mi
Weather by CustomWeather, © 2015

See weather overviewHow to use our weather pages